sat.trackr.live / text

‹ back to catalog

STARLINK-5882

NORAD 55936 · 2023-037Y

PAYLOAD ACTIVE UNKNOWN

§ Identity

Operator
Country
US
Launch date
2023-03-17
Launch site
AFWTR
Launch vehicle
Mass (kg)
RCS (m²)

Purposes: comms

External: N2YO · Heavens-Above · Gunter

§ Orbital elements

Epoch: 2026-09-20T01:41:44.143584Z

Period
96.11 min
Inclination
69.9990°
Eccentricity
0.0002639
Mean motion
14.98330735 rev/d
Perigee alt
570.2 km
Apogee alt
573.9 km
Semi-major
6,950.2 km
B*
4.9564e-5
RAAN
134.1899°
Arg perigee
270.5072°
Mean anomaly
89.5784°
Rev number
19,359

§ Raw data

STARLINK-58821 55936U 23037Y   26263.07064981  .00000498  00000+0  49564-4 0  99992 55936  69.9990 134.1899 0002639 270.5072  89.5784 14.98330735193591

JSON: /api/v1/satellites/55936 · /tle

For live sub-satellite position, see the globe view (requires WebGL).

§ Visibility from observer

Set your observer location to see the next 7 days of passes ≥ 10°. The values pass through the URL so the page stays shareable.

No JS? Fill the form by hand. The geolocation button needs JavaScript.